Regional Weather Roundup
Issued by NWS

Home | Current Version | Previous Version | Text Only | Print | Product List | Glossary On
Versions: 1 2 3 4 5 6 7 8 9 10 11 12 13 14 15 16 17 18 19 20 21 22 23 24 25 26 27 28 29 30 31 32 33 34 35 36 37 38 39 40 41 42 43 44 45 46 47 48 49 50
000
ASUS43 KLSX 291059
RWRMO

WEATHER SUMMARY FOR MISSOURI
NATIONAL WEATHER SERVICE SPRINGFIELD MO
600 AM CDT FRI AUG 29 2014

NOTE: "FAIR" INDICATES FEW OR NO CLOUDS BELOW 12,000 FEET WITH NO
       SIGNIFICANT WEATHER AND/OR OBSTRUCTIONS TO VISIBILITY.
       CURRENT SKY AND/OR WEATHER CONDITIONS ARE NOT AVAILABLE FOR
       CHILLICOTHE AND FARMINGTON.

MOZ001>031-035>038-043-044-053-054-291200-
...NORTHERN AND WESTERN MISSOURI...

CITY           SKY/WX    TMP DP  RH WIND       PRES   REMARKS
KANSAS CTY INT MOCLDY    70  64  81 SW8       29.86R
KANSAS C DTWN  MOCLDY    75  64  68 S6        29.84S
LEE`S SUMMIT   PTCLDY    71  63  75 S7        29.87R
ST JOSEPH      PTCLDY    70  65  84 S7        29.84R
KIRKSVILLE     CLEAR     70  68  93 S7        29.90S FOG

$$
MOZ066>068-077>081-088>096-101>105-291200-
...SOUTHWEST MISSOURI...

CITY           SKY/WX    TMP DP  RH WIND       PRES   REMARKS
SPRINGFIELD    CLEAR     71  63  75 SE9       29.93R
JOPLIN         MOCLDY    73  65  75 S6        29.91R

$$
MOZ032>034-039>042-045>050-055>058-069>072-291200-
...CENTRAL MISSOURI...

CITY           SKY/WX    TMP DP  RH WIND       PRES   REMARKS
COLUMBIA         N/A     70  65  84 S9        29.92S
JEFFERSON CITY PTCLDY    70  64  81 SE5       29.92R
ROLLA          CLEAR     70  65  84 S8        29.94F
SEDALIA        CLEAR     70  62  76 S9        29.90S
OSAGE BEACH    CLEAR     72  61  68 S5        29.92S

$$
MOZ051-052-059>065-291200-
...EAST CENTRAL MISSOURI...

CITY           SKY/WX    TMP DP  RH WIND       PRES   REMARKS
ST LOUIS INTL  PTCLDY    75  70  84 S5        29.96S
SPIRIT OF STL  PTCLDY    70  69  97 CALM      29.94S FOG
ST CHARLES     PTCLDY    72  71  97 E3        29.94S FOG

$$
MOZ072>076-082>087-097>100-106>115-291200-
...SOUTH CENTRAL AND SOUTHEAST MISSOURI...

CITY           SKY/WX    TMP DP  RH WIND       PRES   REMARKS
CAPE GIRARDEAU CLEAR     69  67  93 CALM      29.96R FOG
FARMINGTON       N/A     70  66  88 MISG        N/A
POPLAR BLUFF   MOCLDY    72  68  87 CALM      29.95R FOG
WEST PLAINS    CLEAR     65  62  90 CALM      29.98S

$$



USA.gov is the U.S. government's official web portal to all federal, state and local government web resources and services.